Location: Burbank
(38.7788°N, 114.0429°W)
Time: 23:53:46
(UTC+00:00)

Courier 1B - All Passes

Search period start: 11 May 2026 00:00
Search period end: 21 May 2026 00:00
Orbit: 962 x 1209 km, 28.3° (Epoch: 11 May)

Date Brightness Start Highest point End Pass type
(mag) Time Alt. Az. Time Alt. Az. Time Alt. Az.
11 May - 17:10:55 10° SSW 17:16:50 25° SSE 17:22:53 10° ESE daylight
11 May - 19:03:22 10° WSW 19:10:23 37° S 19:17:26 10° ESE daylight
11 May - 20:57:06 10° WSW 21:04:04 35° S 21:10:56 10° SE daylight
11 May - 22:52:03 10° WSW 22:57:30 21° SSW 23:02:50 10° SSE daylight
12 May - 16:17:51 10° SSW 16:23:03 20° SSE 16:28:22 10° ESE daylight
12 May - 18:09:38 10° SW 18:16:27 35° S 18:23:24 10° ESE daylight
12 May - 20:03:05 10° WSW 20:10:09 38° S 20:17:11 10° ESE daylight
12 May - 21:57:34 10° WSW 22:03:42 25° SSW 22:09:43 10° SSE daylight
13 May - 15:25:13 10° S 15:29:18 16° SSE 15:33:28 10° ESE daylight
13 May - 17:16:04 10° SW 17:22:34 31° SSE 17:29:15 10° ESE daylight
13 May - 19:09:09 10° WSW 19:16:13 39° S 19:23:20 10° ESE daylight
13 May - 21:03:17 10° WSW 21:09:51 29° SSW 21:16:21 10° SE daylight
13 May - 22:59:36 10° SW 23:03:07 14° SSW 23:06:36 10° S daylight
14 May - 14:33:39 10° SSE 14:35:36 11° SSE 14:37:35 10° SE daylight
14 May - 16:22:40 10° SW 16:28:44 27° SSE 16:35:00 10° ESE daylight
14 May - 18:15:20 10° WSW 18:22:17 38° S 18:29:23 10° ESE daylight
14 May - 20:09:10 10° WSW 20:15:57 33° SSW 20:22:46 10° SE daylight
14 May - 22:04:27 10° WSW 22:09:22 18° SSW 22:14:13 10° SSE daylight
15 May - 15:29:30 10° SSW 15:34:56 23° SSE 15:40:36 10° ESE daylight
15 May - 17:21:38 10° SW 17:28:22 36° S 17:35:21 10° ESE daylight
15 May - 19:15:09 10° WSW 19:22:02 36° S 19:29:02 10° SE daylight
15 May - 21:09:49 10° WSW 21:15:33 22° SSW 21:21:15 10° SSE daylight
16 May - 14:36:38 10° SSW 14:41:13 18° SSE 14:45:56 10° ESE daylight
16 May - 16:28:02 10° SW 16:34:29 33° S 16:41:13 10° ESE daylight
16 May - 18:21:15 10° WSW 18:28:07 38° S 18:35:12 10° ESE daylight
16 May - 20:15:30 10° WSW 20:21:42 26° SSW 20:27:58 10° SE daylight
16 May - 22:13:15 10° SW 22:14:58 11° SSW 22:16:39 10° SSW daylight
17 May - 13:44:20 10° S 13:47:32 13° SSE 13:50:48 10° SE daylight
17 May - 15:34:36 10° SW 15:40:40 29° SSE 15:47:01 10° ESE daylight
17 May - 17:27:27 10° WSW 17:34:12 38° S 17:41:15 10° ESE daylight
17 May - 19:21:21 10° WSW 19:27:50 30° SSW 19:34:26 10° SE daylight
17 May - 21:17:11 10° WSW 21:21:11 15° SSW 21:25:13 10° S daylight
18 May - 14:41:20 10° SSW 14:46:54 25° SSE 14:52:43 10° ESE daylight
18 May - 16:33:44 10° WSW 16:40:19 37° S 16:47:13 10° ESE daylight
18 May - 18:27:21 10° WSW 18:33:57 33° S 18:40:45 10° SE daylight
18 May - 20:22:20 10° WSW 20:27:24 19° SSW 20:32:31 10° SSE daylight
19 May - 13:48:19 10° SSW 13:53:11 20° SSE 13:58:15 10° ESE daylight
19 May - 15:40:10 10° SW 15:46:29 34° S 15:53:09 10° ESE daylight
19 May - 17:33:28 10° WSW 17:40:03 36° S 17:46:56 10° SE daylight
19 May - 19:27:53 10° WSW 19:33:35 23° SSW 19:39:23 10° SSE daylight
20 May - 12:55:41 10° S 12:59:32 16° SSE 13:03:30 10° ESE daylight
20 May - 14:46:41 10° SW 14:52:41 31° SSE 14:59:00 10° ESE daylight
20 May - 16:39:41 10° WSW 16:46:11 37° S 16:53:02 10° ESE daylight
20 May - 18:33:42 10° WSW 18:39:44 27° SSW 18:45:58 10° SE daylight
20 May - 20:30:40 10° SW 20:33:02 12° SSW 20:35:25 10° S daylight
